EW7664 Weather Reports


time (UTC)temp
C
wind
direction
speed
KPH
gust
KPH
rain 1hr
cm
rain 24hr
cm
rain mn
cm
humidity
%
barometer
mb
20260507220539 15 131 0.0 6.4 0.00 0.10 0.00 47 1005.7
20260507215540 16 263 0.0 6.4 0.00 0.10 0.00 46 1005.7
20260507215040 16 198 0.0 8.0 0.00 0.10 0.00 45 1005.7
20260507214539 16 207 0.0 8.0 0.00 0.10 0.00 43 1005.7
20260507214039 17 114 0.0 11.3 0.00 0.10 0.00 43 1005.7
20260507213540 17 144 0.0 11.3 0.00 0.10 0.00 42 1005.7
20260507213039 17 95 0.0 3.2 0.00 0.10 0.00 42 1005.5
20260507212539 17 94 0.0 0.0 0.00 0.10 0.00 40 1005.5
20260507212039 18 94 0.0 0.0 0.00 0.10 0.00 40 1005.5
20260507211539 18 91 0.0 0.0 0.00 0.10 0.00 39 1005.5
20260507211040 18 91 0.0 0.0 0.00 0.10 0.00 37 1005.5
20260507210539 18 91 0.0 0.0 0.00 0.10 0.00 29 1005.5
20260507210039 18 91 0.0 0.0 0.00 0.10 0.00 30 1005.4
20260507205539 18 91 0.0 0.0 0.00 0.10 0.00 32 1005.5
20260507205039 18 91 0.0 0.0 0.00 0.10 0.00 33 1005.5
20260507204540 18 91 0.0 0.0 0.00 0.10 0.00 31 1005.5
20260507204039 18 91 0.0 0.0 0.00 0.10 0.00 30 1005.6
20260507203540 18 91 0.0 0.0 0.00 0.10 0.00 31 1005.6
20260507203040 18 91 0.0 3.2 0.00 0.10 0.00 30 1005.6
20260507202539 18 90 0.0 4.8 0.00 0.10 0.00 29 1005.6
20260507202040 18 90 1.6 9.7 0.00 0.10 0.00 30 1005.7
20260507201539 18 90 1.6 14.5 0.00 0.10 0.00 29 1005.7
20260507200540 18 134 0.0 0.0 0.00 0.10 0.00 29 1005.7
20260507195539 19 108 0.0 9.7 0.00 0.10 0.00 30 1005.8
20260507195040 18 82 0.0 9.7 0.00 0.10 0.00 29 1005.9
20260507194539 18 161 0.0 11.3 0.00 0.10 0.00 31 1005.9
20260507194040 18 169 0.0 11.3 0.00 0.10 0.00 30 1006.1
20260507193539 18 123 0.0 4.8 0.00 0.10 0.00 32 1006.2
20260507192539 19 190 0.0 6.4 0.00 0.10 0.00 28 1006.3
20260507192040 19 122 0.0 4.8 0.00 0.10 0.00 29 1006.2
20260507191539 19 123 0.0 6.4 0.00 0.10 0.00 29 1006.3
20260507191039 19 73 0.0 6.4 0.00 0.10 0.00 30 1006.4
20260507190539 18 103 0.0 1.6 0.00 0.10 0.00 30 1006.5
20260507190039 18 103 0.0 0.0 0.00 0.10 0.00 31 1006.5
20260507185539 18 103 0.0 6.4 0.00 0.10 0.00 33 1006.6
20260507185039 18 103 0.0 6.4 0.00 0.10 0.00 30 1006.8
20260507184539 18 56 0.0 3.2 0.00 0.10 0.00 30 1006.8
20260507183040 17 97 0.0 4.8 0.00 0.10 0.00 31 1006.8
20260507182539 17 97 0.0 4.8 0.00 0.10 0.00 30 1006.8
20260507182040 17 79 0.0 8.0 0.00 0.10 0.00 31 1007.0
20260507181539 17 49 0.0 8.0 0.00 0.10 0.00 30 1007.0
20260507181039 18 123 0.0 6.4 0.00 0.10 0.00 31 1006.9
20260507180539 18 306 0.0 3.2 0.00 0.10 0.00 31 1006.9
20260507180039 18 306 1.6 8.0 0.00 0.10 0.00 32 1007.2
20260507175540 18 305 1.6 8.0 0.00 0.10 0.00 31 1007.1
20260507175039 18 42 0.0 3.2 0.00 0.10 0.00 32 1007.3
20260507174539 18 42 0.0 4.8 0.00 0.10 0.00 32 1007.4
20260507174039 18 333 0.0 8.0 0.00 0.10 0.00 31 1007.6
20260507173539 18 333 0.0 8.0 0.00 0.10 0.00 30 1007.7
20260507173039 18 82 0.0 3.2 0.00 0.10 0.00 32 1007.8
20260507171039 17 328 0.0 4.8 0.00 0.10 0.00 33 1008.1
20260507170539 17 122 0.0 0.0 0.00 0.10 0.00 36 1008.3
20260507170039 17 122 0.0 1.6 0.00 0.10 0.00 33 1008.4
20260507165539 17 123 0.0 1.6 0.00 0.10 0.00 31 1008.5
20260507164540 17 115 0.0 3.2 0.00 0.10 0.00 31 1008.9
20260507164039 17 96 0.0 0.0 0.00 0.10 0.00 33 1008.9
20260507163540 17 128 0.0 0.0 0.00 0.10 0.00 32 1009.0
20260507163039 16 117 0.0 0.0 0.00 0.10 0.00 33 1009.0
20260507162540 16 118 0.0 0.0 0.00 0.10 0.00 33 1008.9
20260507161540 16 93 0.0 0.0 0.00 0.10 0.00 32 1009.0
20260507161038 16 111 0.0 0.0 0.00 0.10 0.00 37 1009.1
20260507160539 16 91 0.0 0.0 0.00 0.10 0.00 35 1009.3
20260507160039 15 123 0.0 1.6 0.00 0.10 0.00 37 1009.4
20260507155539 15 89 1.6 11.3 0.00 0.10 0.00 33 1009.5
20260507154540 15 115 0.0 6.4 0.00 0.10 0.00 32 1009.6
20260507154039 15 34 1.6 6.4 0.00 0.10 0.00 34 1009.7
20260507153539 15 360 1.6 6.4 0.00 0.10 0.00 34 1009.7
20260507153039 15 96 1.6 12.9 0.00 0.10 0.00 34 1009.7
20260507152539 15 130 0.0 12.9 0.00 0.10 0.00 34 1009.7
20260507151039 14 67 0.0 4.8 0.00 0.10 0.00 37 1010.0
20260507150040 13 351 0.0 6.4 0.00 0.10 0.00 38 1010.2
20260507145540 13 65 0.0 6.4 0.00 0.10 0.00 40 1010.3
20260507144539 12 174 1.6 9.7 0.00 0.10 0.00 38 1010.3
20260507144039 12 304 0.0 9.7 0.00 0.10 0.00 40 1010.5
20260507143540 12 15 0.0 9.7 0.00 0.10 0.00 41 1010.5
20260507143039 12 46 0.0 0.0 0.00 0.10 0.00 41 1010.5
20260507142538 12 44 0.0 0.0 0.00 0.10 0.00 40 1010.6
20260507142038 12 34 0.0 0.0 0.00 0.10 0.00 42 1010.5
20260507141539 11 34 0.0 0.0 0.00 0.10 0.00 41 1010.7
20260507141039 11 30 0.0 0.0 0.00 0.10 0.00 43 1010.7
20260507140539 11 30 1.6 9.7 0.00 0.10 0.00 40 1010.8
20260507135039 11 121 0.0 4.8 0.00 0.10 0.00 42 1011.3
20260507134539 11 43 0.0 4.8 0.00 0.10 0.00 40 1011.3
20260507133539 11 49 0.0 0.0 0.00 0.10 0.00 43 1011.4
20260507133039 11 22 0.0 0.0 0.00 0.10 0.00 45 1011.4
20260507132540 11 21 0.0 0.0 0.00 0.10 0.00 46 1011.5
20260507132039 11 21 0.0 0.0 0.00 0.10 0.00 46 1011.2
20260507131539 11 20 0.0 0.0 0.00 0.10 0.00 45 1011.2
20260507130539 11 20 0.0 8.0 0.00 0.10 0.00 48 1011.3
20260507125540 11 111 0.0 0.0 0.00 0.13 0.00 48 1011.3
20260507124540 11 113 0.0 6.4 0.00 0.13 0.00 47 1011.2
20260507124038 11 107 0.0 0.0 0.00 0.13 0.00 49 1011.3
20260507123539 11 62 0.0 0.0 0.00 0.13 0.00 50 1011.2
20260507123039 11 63 0.0 0.0 0.00 0.13 0.00 51 1011.2
20260507121539 11 63 0.0 0.0 0.00 0.13 0.00 53 1011.0
20260507120039 11 61 0.0 0.0 0.00 0.13 0.00 55 1011.0
20260507115539 11 61 0.0 0.0 0.00 0.23 0.00 55 1011.1
20260507115040 -17 61 0.0 0.0 0.00 0.23 0.00 1011.0
20260507114539 -17 61 0.0 0.0 0.00 0.23 0.00 1011.0
20260507114039 11 61 0.0 0.0 0.00 0.23 0.00 57 1010.8
20260507113539 -17 61 0.0 0.0 0.00 0.23 0.00 1010.8
20260507113038 11 61 0.0 0.0 0.00 0.23 0.00 58 1010.9
20260507112539 11 61 0.0 0.0 0.00 0.23 0.00 57 1010.8
20260507112040 11 61 0.0 0.0 0.00 0.23 0.00 59 1010.5
20260507111539 11 62 0.0 0.0 0.00 0.23 0.00 59 1010.4
20260507111039 11 62 0.0 0.0 0.00 0.23 0.00 60 1010.5
20260507110039 11 63 0.0 0.0 0.00 0.23 0.00 59 1010.6
20260507105539 11 63 0.0 0.0 0.00 0.23 0.00 59 1010.5
20260507105039 11 63 0.0 0.0 0.00 0.23 0.00 59 1010.5
20260507104538 11 59 0.0 0.0 0.00 0.23 0.00 60 1010.5
20260507104038 11 59 0.0 0.0 0.00 0.23 0.00 59 1010.4
20260507103539 11 59 0.0 0.0 0.00 0.23 0.00 59 1010.4
20260507103039 11 59 0.0 0.0 0.00 0.23 0.00 59 1010.3
20260507102038 11 59 0.0 0.0 0.00 0.23 0.00 59 1010.2
20260507101040 11 59 0.0 0.0 0.00 0.23 0.00 61 1010.1
20260507100539 11 59 0.0 0.0 0.00 0.23 0.00 60 1010.0
20260507100040 11 76 0.0 0.0 0.00 0.23 0.00 60 1010.0
20260507095539 11 76 0.0 0.0 0.00 0.23 0.00 60 1009.8
20260507095039 11 76 0.0 0.0 0.00 0.23 0.00 62 1009.8
20260507094538 11 76 0.0 0.0 0.00 0.23 0.00 61 1009.8
20260507094038 11 76 0.0 0.0 0.00 0.23 0.00 62 1009.7
20260507093538 11 76 0.0 0.0 0.00 0.23 0.00 64 1009.8
20260507093039 11 76 0.0 0.0 0.00 0.23 0.00 64 1009.7
20260507092038 11 76 0.0 0.0 0.00 0.23 0.00 65 1009.7
20260507091538 11 76 0.0 0.0 0.00 0.23 0.00 65 1009.6
20260507091039 11 76 0.0 0.0 0.00 0.23 0.00 66 1009.5
20260507090538 11 76 0.0 0.0 0.00 0.23 0.00 66 1009.5
20260507090040 11 76 0.0 0.0 0.00 0.23 0.00 66 1009.5
20260507085539 11 76 0.0 0.0 0.00 0.23 0.00 66 1009.5
20260507085038 11 76 0.0 0.0 0.00 0.23 0.00 66 1009.5
20260507084539 11 76 0.0 0.0 0.00 0.23 0.00 64 1009.6
20260507084039 11 76 0.0 0.0 0.00 0.23 0.00 65 1009.7
20260507083538 11 76 0.0 0.0 0.00 0.23 0.00 65 1009.7
20260507083038 11 76 0.0 0.0 0.00 0.23 0.00 65 1009.8
20260507082538 11 76 0.0 0.0 0.00 0.23 0.00 65 1009.7
20260507081038 11 76 0.0 0.0 0.00 0.23 0.00 66 1009.4
20260507080538 11 76 0.0 0.0 0.00 0.23 0.00 66 1009.5
20260507080039 11 76 0.0 0.0 0.00 0.23 0.00 65 1009.3
20260507075539 11 76 0.0 0.0 0.00 0.23 0.00 65 1009.4
20260507075039 11 76 0.0 0.0 0.00 0.23 0.00 65 1009.3
20260507074538 11 76 0.0 0.0 0.00 0.23 0.00 65 1009.4
20260507074039 11 76 0.0 0.0 0.00 0.23 0.00 65 1009.3
20260507073538 11 76 0.0 0.0 0.00 0.23 0.00 65 1009.1
20260507072538 11 76 0.0 0.0 0.00 0.23 0.00 64 1009.1
20260507072039 11 76 0.0 0.0 0.00 0.23 0.00 64 1009.2
20260507071540 11 76 0.0 0.0 0.00 0.23 0.00 65 1009.1
20260507071038 11 76 0.0 0.0 0.00 0.23 0.00 65 1009.1
20260507070539 11 76 0.0 0.0 0.00 0.23 0.00 66 1009.1
20260507070038 11 76 0.0 0.0 0.00 0.23 0.00 65 1009.3
20260507065538 11 74 0.0 0.0 0.00 0.23 0.00 65 1009.2
20260507065039 11 36 0.0 0.0 0.00 0.23 0.00 65 1009.5
20260507064539 11 36 0.0 0.0 0.00 0.23 0.00 65 1009.1
20260507064039 11 36 0.0 0.0 0.00 0.23 0.00 64 1009.3
20260507063539 11 36 0.0 0.0 0.00 0.23 0.00 64 1009.3
20260507063038 11 36 0.0 0.0 0.00 0.23 0.00 63 1009.5
20260507062538 11 36 0.0 0.0 0.00 0.23 0.00 63 1009.5
20260507062038 11 36 0.0 0.0 0.00 0.23 0.00 64 1009.5
20260507061539 11 49 0.0 0.0 0.00 0.23 0.00 64 1009.6
20260507061038 12 49 0.0 0.0 0.00 0.23 0.00 64 1009.8
20260507060539 12 49 0.0 0.0 0.00 0.23 0.00 64 1009.9
20260507055539 12 49 0.0 0.0 0.00 0.23 0.00 63 1010.0
20260507055039 12 63 0.0 0.0 0.00 0.23 0.00 63 1009.7
20260507054539 12 63 0.0 0.0 0.00 0.23 0.00 64 1009.5
20260507054038 12 63 0.0 0.0 0.00 0.23 0.00 62 1009.5
20260507053539 12 63 0.0 0.0 0.00 0.23 0.00 61 1009.5
20260507053039 12 63 0.0 0.0 0.00 0.23 0.00 62 1009.3
20260507052539 12 63 0.0 0.0 0.00 0.23 0.00 61 1009.3
20260507052039 12 63 0.0 0.0 0.00 0.23 0.00 61 1009.3
20260507051039 12 63 0.0 0.0 0.00 0.23 0.00 61 1009.4
20260507050538 12 62 0.0 3.2 0.00 0.23 0.00 61 1009.5
20260507050039 12 51 1.6 9.7 0.00 0.23 0.00 62 1009.6
20260507045538 12 61 1.6 9.7 0.00 0.23 0.00 62 1009.6
20260507045039 12 44 1.6 12.9 0.00 0.23 0.00 62 1009.6
20260507044539 12 128 0.0 6.4 0.00 0.23 0.00 62 1009.3
20260507043538 13 107 0.0 3.2 0.00 0.23 0.00 63 1008.9
20260507043039 13 108 0.0 9.7 0.00 0.23 0.00 64 1008.2
20260507042539 13 107 0.0 9.7 0.03 0.23 0.00 64 1008.2
20260507042038 13 55 0.0 4.8 0.03 0.23 0.00 64 1008.9
20260507041538 13 147 0.0 0.0 0.03 0.23 0.00 65 1009.0
20260507041038 13 148 0.0 0.0 0.03 0.23 0.00 65 1008.8
20260507040538 13 148 0.0 0.0 0.03 0.23 0.00 65 1008.9
20260507040038 13 148 0.0 0.0 0.03 0.23 0.00 65 1008.7
20260507035538 13 148 0.0 0.0 0.03 0.23 0.23 63 1008.2
20260507035039 13 148 0.0 0.0 0.03 0.23 0.23 63 1008.6
20260507034538 13 148 0.0 0.0 0.03 0.23 0.23 63 1009.4
20260507034038 13 148 0.0 0.0 0.03 0.23 0.23 64 1009.3
20260507033538 13 148 0.0 6.4 0.03 0.23 0.23 64 1009.2
20260507033038 13 148 0.0 6.4 0.03 0.23 0.23 62 1009.1
20260507032539 13 120 0.0 6.4 0.00 0.20 0.20 63 1008.7
20260507032039 13 119 0.0 4.8 0.00 0.20 0.20 62 1008.7
20260507031538 13 100 0.0 0.0 0.00 0.20 0.20 64 1008.3
20260507030539 13 100 0.0 0.0 0.00 0.20 0.20 62 1008.4
20260507030038 14 100 0.0 0.0 0.00 0.20 0.20 63 1008.6
20260507025538 14 100 0.0 0.0 0.00 0.20 0.20 62 1008.8
20260507025039 14 100 0.0 0.0 0.00 0.20 0.20 62 1008.9
20260507024539 14 100 0.0 0.0 0.00 0.20 0.20 62 1008.8
20260507023039 14 101 0.0 0.0 0.00 0.20 0.20 62 1008.4
20260507022538 14 101 0.0 0.0 0.00 0.20 0.20 63 1008.2
20260507022039 14 101 0.0 0.0 0.00 0.20 0.20 62 1007.8
20260507021539 14 101 0.0 4.8 0.00 0.20 0.20 62 1007.8
20260507021038 14 101 0.0 8.0 0.00 0.20 0.20 62 1007.9
20260507020539 14 65 0.0 8.0 0.00 0.20 0.20 62 1007.8
20260507020039 14 195 0.0 0.0 0.00 0.20 0.20 62 1008.0
20260507015039 14 195 0.0 0.0 0.00 0.20 0.20 63 1008.0
20260507014538 15 195 0.0 0.0 0.00 0.20 0.20 64 1007.9
20260507014039 15 195 0.0 0.0 0.00 0.20 0.20 63 1007.9
20260507013538 15 195 0.0 0.0 0.00 0.20 0.20 63 1007.9
20260507013039 15 195 0.0 0.0 0.00 0.20 0.20 63 1007.8
20260507012038 15 195 0.0 0.0 0.00 0.20 0.20 62 1007.8
20260507011539 15 195 0.0 0.0 0.00 0.20 0.20 62 1007.7
20260507010539 15 195 0.0 0.0 0.00 0.20 0.20 63 1007.6
20260507005039 15 194 0.0 3.2 0.00 0.20 0.20 64 1007.8
20260507004538 15 194 0.0 3.2 0.00 0.20 0.20 64 1007.5
20260507003538 16 192 0.0 0.0 0.00 0.20 0.20 65 1007.8
20260507002538 16 192 0.0 0.0 0.00 0.20 0.20 64 1007.5
20260507002038 16 192 0.0 0.0 0.00 0.20 0.20 64 1007.6
20260507001538 16 192 0.0 0.0 0.00 0.20 0.20 64 1007.7
20260507001038 16 192 0.0 0.0 0.00 0.20 0.20 64 1007.5
20260507000539 16 192 0.0 0.0 0.00 0.20 0.20 64 1007.5
20260507000038 16 192 0.0 0.0 0.00 0.20 0.20 64 1007.4
20260506235539 16 192 0.0 0.0 0.00 0.20 0.20 64 1007.4
20260506235039 17 192 0.0 0.0 0.00 0.20 0.20 64 1007.4
20260506234539 17 192 0.0 0.0 0.00 0.20 0.20 64 1007.3
20260506234039 17 192 0.0 0.0 0.03 0.20 0.20 65 1007.2
20260506233538 17 192 0.0 0.0 0.03 0.20 0.20 65 1006.8
20260506233038 17 192 0.0 0.0 0.03 0.20 0.20 65 1006.6
20260506232039 17 192 0.0 0.0 0.08 0.20 0.20 64 1006.8
20260506231538 17 192 0.0 0.0 0.08 0.20 0.20 64 1006.4
20260506230538 17 192 0.0 4.8 0.08 0.20 0.20 64 1006.2
20260506230038 17 89 0.0 4.8 0.08 0.20 0.20 65 1006.2
20260506225538 18 317 0.0 12.9 0.08 0.20 0.20 65 1006.0
20260506225038 18 318 0.0 12.9 0.08 0.20 0.20 65 1005.9
20260506224538 18 220 0.0 0.0 0.08 0.20 0.20 65 1005.8
20260506224038 18 220 0.0 0.0 0.05 0.18 0.18 64 1005.9
20260506223538 18 220 0.0 0.0 0.05 0.18 0.18 64 1005.7
20260506223038 18 220 0.0 0.0 0.05 0.18 0.18 65 1005.5
20260506222539 19 220 0.0 0.0 0.03 0.15 0.15 66 1005.5
20260506221538 20 220 0.0 0.0 0.00 0.13 0.13 65 1005.3
20260506221038 20 220 0.0 0.0 0.00 0.13 0.13 65 1005.2